Parnaiba Arpt, Brazil

1:29 AM BRT on February 24, 2017 (GMT -0300)
Parnaiba

Weather History for SBPB - February, 2013

Change the Weather History Date:

Saturday, February 2, 2013

  Actual Average Record
Temperature  
Mean Temperature 88 °F -  
Max Temperature 95 °F - - ()
Min Temperature 80 °F - - ()
Cooling Degree Days 22    
Growing Degree Days 38 (Base 50)    
Moisture  
Dew Point 76 °F    
Average Humidity 67    
Maximum Humidity 84    
Minimum Humidity 52    
Precipitation  
Precipitation 0.00 in - - ()
Sea Level Pressure  
Sea Level Pressure 29.81 in    
Wind  
Wind Speed 16 mph ()    
Max Wind Speed 23 mph    
Max Gust Speed -    
Visibility 6.2 miles    
Events      
T = Trace of Precipitation, MM = Missing Value Source: Averaged Metar Reports

Daily Weather History Graph

Daily Weather History Graph

Search for Another Location

Airport or City:

Trip Planner

Search our weather history database for the weather conditions in past years. The results will help you decide how hot, cold, wet, or windy it might be!

Date:

Astronomy

Feb. 02, 2013 Rise Set
Actual Time 5:53 AM BRT 6:07 PM BRT
Civil Twilight 5:32 AM BRT 6:29 PM BRT
Nautical Twilight 5:06 AM BRT 6:54 PM BRT
Astronomical Twilight 4:41 AM BRT 7:19 PM BRT
Moon 11:12 PM BRT (2/2) 10:50 AM BRT (2/2)
Length of Visible Light 12h 57m
Length of Day
12h 14m
Waning Gibbous, 61% of the Moon is Illuminated
Feb 2
Waning Gibbous
Feb 3
Last Quarter
Feb 10
New
Feb 17
First Quarter
Feb 25
Full

Hourly Weather History & Observations

Time (BRT) Temp. Heat Index Dew Point Humidity Pressure Visibility Wind Dir Wind Speed Gust Speed Precip Events Conditions
12:00 AM 84.2 °F 92.3 °F 75.2 °F 74% 29.83 in 6.2 mi East 19.6 mph - N/A   Partly Cloudy
6:15 AM 80.6 °F 86.2 °F 75.2 °F 84% 29.86 in 6.2 mi ESE 11.5 mph - N/A   Scattered Clouds
7:00 AM 82.4 °F 89.5 °F 75.2 °F 79% 29.86 in 6.2 mi ESE 13.8 mph - N/A   Scattered Clouds
8:00 AM 87.8 °F 97.6 °F 75.2 °F 66% 29.89 in 6.2 mi ESE 20.7 mph - N/A   Scattered Clouds
9:00 AM 89.6 °F 99.8 °F 75.2 °F 62% 29.89 in 6.2 mi East 23.0 mph - N/A   Scattered Clouds
10:00 AM 93.2 °F 102.4 °F 73.4 °F 52% 29.89 in 6.2 mi East 23.0 mph - N/A   Partly Cloudy
11:00 AM 95.0 °F 107.4 °F 75.2 °F 53% 29.86 in 6.2 mi ENE 23.0 mph - N/A   Partly Cloudy
12:00 PM 95.0 °F 109.7 °F 77.0 °F 56% 29.83 in 6.2 mi ENE 23.0 mph - N/A   Partly Cloudy
1:00 PM 95.0 °F 109.7 °F 77.0 °F 56% 29.83 in 6.2 mi ENE 18.4 mph - N/A   Partly Cloudy
2:00 PM 95.0 °F 109.7 °F 77.0 °F 56% 29.80 in 6.2 mi ENE 17.3 mph - N/A   Partly Cloudy
3:00 PM 95.0 °F 107.4 °F 75.2 °F 53% 29.77 in 6.2 mi ENE 19.6 mph - N/A   Partly Cloudy
4:00 PM 93.2 °F 107.2 °F 77.0 °F 59% 29.74 in 6.2 mi East 20.7 mph - N/A   Partly Cloudy
5:00 PM 89.6 °F 102.2 °F 77.0 °F 66% 29.74 in - ENE 17.3 mph - N/A   Clear
6:00 PM 86.0 °F 96.9 °F 77.0 °F 74% 29.74 in - ENE 17.3 mph - N/A   Clear
7:00 PM 86.0 °F 96.9 °F 77.0 °F 74% 29.77 in - ENE 15.0 mph - N/A   Clear
8:00 PM 86.0 °F 96.9 °F 77.0 °F 74% 29.77 in - East 17.3 mph - N/A   Clear
9:00 PM 86.0 °F 96.9 °F 77.0 °F 74% 29.80 in - East 17.3 mph - N/A   Clear
10:00 PM 84.2 °F 94.1 °F 77.0 °F 79% 29.80 in - East 18.4 mph - N/A   Clear
11:00 PM 84.2 °F 94.1 °F 77.0 °F 79% 29.80 in - East 16.1 mph - N/A   Clear